| time (UTC) | temp F | wind direction | speed MPH | gust MPH | rain 1hr in | rain 24hr in | rain mn in | humidity % | barometer mb |
| 20260906132534 | 81 | 326 | 2.0 | 6.0 | 0.00 | 0.00 | 0.00 | 71 | 1015.6 |
| 20260906131532 | 79 | 100 | 2.0 | 4.0 | 0.00 | 0.00 | 0.00 | 72 | 1015.6 |
| 20260906130530 | 78 | 31 | 3.0 | 5.0 | 0.00 | 0.00 | 0.00 | 74 | 1015.4 |
| 20260906125528 | 76 | 62 | 2.0 | 3.0 | 0.00 | 0.00 | 0.00 | 79 | 1015.3 |
| 20260906124526 | 74 | 66 | 2.0 | 4.0 | 0.00 | 0.00 | 0.00 | 82 | 1015.3 |
| 20260906123525 | 73 | 80 | 2.0 | 4.0 | 0.00 | 0.00 | 0.00 | 85 | 1015.2 |
| 20260906122522 | 73 | 73 | 1.0 | 3.0 | 0.00 | 0.00 | 0.00 | 86 | 1014.9 |
| 20260906121541 | 73 | 122 | 1.0 | 4.0 | 0.00 | 0.00 | 0.00 | 85 | 1014.9 |
| 20260906120519 | 72 | 198 | 2.0 | 4.0 | 0.00 | 0.00 | 0.00 | 86 | 1014.8 |
| 20260906115517 | 73 | 30 | 1.0 | 2.0 | 0.00 | 0.00 | 0.00 | 84 | 1014.6 |
| 20260906114515 | 72 | 140 | 2.0 | 3.0 | 0.00 | 0.00 | 0.00 | 85 | 1014.5 |
| 20260906113533 | 72 | 66 | 1.0 | 3.0 | 0.00 | 0.00 | 0.00 | 85 | 1014.5 |
| 20260906112551 | 73 | 22 | 3.0 | 7.0 | 0.00 | 0.00 | 0.00 | 84 | 1014.5 |
| 20260906111529 | 73 | 45 | 2.0 | 4.0 | 0.00 | 0.00 | 0.00 | 84 | 1014.4 |
| 20260906110527 | 73 | 81 | 2.0 | 4.0 | 0.00 | 0.00 | 0.00 | 83 | 1014.5 |
| 20260906105526 | 73 | 62 | 1.0 | 3.0 | 0.00 | 0.00 | 0.00 | 83 | 1014.4 |
| 20260906104524 | 73 | 20 | 4.0 | 8.0 | 0.00 | 0.00 | 0.00 | 82 | 1014.2 |
| 20260906103522 | 74 | 57 | 2.0 | 4.0 | 0.00 | 0.00 | 0.00 | 82 | 1014.4 |
| 20260906102520 | 74 | 56 | 3.0 | 4.0 | 0.00 | 0.00 | 0.00 | 83 | 1014.3 |
| 20260906101519 | 74 | 78 | 2.0 | 4.0 | 0.00 | 0.00 | 0.00 | 81 | 1014.3 |
| 20260906100536 | 74 | 116 | 3.0 | 4.0 | 0.00 | 0.00 | 0.00 | 81 | 1014.2 |
| 20260906095534 | 74 | 85 | 2.0 | 4.0 | 0.00 | 0.00 | 0.00 | 80 | 1014.3 |
| 20260906094533 | 74 | 49 | 3.0 | 4.0 | 0.00 | 0.00 | 0.00 | 80 | 1014.2 |
| 20260906093531 | 74 | 34 | 3.0 | 5.0 | 0.00 | 0.00 | 0.00 | 80 | 1014.2 |
| 20260906092609 | 74 | 37 | 1.0 | 3.0 | 0.00 | 0.00 | 0.00 | 80 | 1014.1 |
| 20260906091527 | 74 | 42 | 1.0 | 2.0 | 0.00 | 0.00 | 0.00 | 79 | 1014.1 |
| 20260906090525 | 74 | 34 | 1.0 | 2.0 | 0.00 | 0.00 | 0.00 | 78 | 1014.1 |
| 20260906085523 | 75 | 42 | 1.0 | 2.0 | 0.00 | 0.00 | 0.00 | 78 | 1014.0 |
| 20260906084542 | 75 | 60 | 1.0 | 2.0 | 0.00 | 0.00 | 0.00 | 77 | 1013.9 |
| 20260906083520 | 75 | 45 | 1.0 | 2.0 | 0.00 | 0.00 | 0.00 | 76 | 1014.0 |
| 20260906082538 | 75 | 47 | 1.0 | 2.0 | 0.00 | 0.00 | 0.00 | 76 | 1014.0 |
| 20260906081536 | 76 | 43 | 1.0 | 2.0 | 0.00 | 0.00 | 0.00 | 75 | 1013.9 |
| 20260906080534 | 76 | 37 | 0.0 | 1.0 | 0.00 | 0.00 | 0.00 | 74 | 1014.0 |
| 20260906075532 | 76 | 52 | 2.0 | 2.0 | 0.00 | 0.00 | 0.00 | 73 | 1014.0 |
| 20260906074530 | 77 | 39 | 1.0 | 2.0 | 0.00 | 0.00 | 0.00 | 72 | 1013.8 |
| 20260906073528 | 77 | 39 | 2.0 | 3.0 | 0.00 | 0.00 | 0.00 | 72 | 1013.9 |
| 20260906072526 | 77 | 37 | 0.0 | 1.0 | 0.00 | 0.00 | 0.00 | 72 | 1014.1 |
| 20260906071524 | 77 | 46 | 1.0 | 2.0 | 0.00 | 0.00 | 0.00 | 71 | 1014.1 |
| 20260906070523 | 78 | 36 | 0.0 | 1.0 | 0.00 | 0.00 | 0.00 | 69 | 1014.1 |
| 20260906065521 | 78 | 36 | 1.0 | 2.0 | 0.00 | 0.00 | 0.00 | 69 | 1014.1 |
| 20260906064519 | 79 | 40 | 0.0 | 2.0 | 0.00 | 0.00 | 0.00 | 68 | 1014.2 |
| 20260906063537 | 80 | 23 | 0.0 | 1.0 | 0.00 | 0.00 | 0.00 | 66 | 1014.2 |
| 20260906062515 | 80 | 42 | 1.0 | 2.0 | 0.00 | 0.00 | 0.00 | 64 | 1014.2 |
| 20260906061533 | 80 | 37 | 2.0 | 3.0 | 0.00 | 0.00 | 0.00 | 64 | 1014.2 |
| 20260906060532 | 81 | 35 | 1.0 | 3.0 | 0.00 | 0.00 | 0.00 | 63 | 1014.1 |
| 20260906055529 | 81 | 28 | 2.0 | 3.0 | 0.00 | 0.00 | 0.00 | 63 | 1014.2 |
| 20260906054528 | 80 | 39 | 1.0 | 3.0 | 0.00 | 0.00 | 0.00 | 63 | 1014.2 |
| 20260906053546 | 80 | 28 | 1.0 | 3.0 | 0.00 | 0.00 | 0.00 | 64 | 1014.2 |
| 20260906052544 | 81 | 35 | 1.0 | 2.0 | 0.00 | 0.00 | 0.00 | 62 | 1014.0 |
| 20260906051522 | 82 | 38 | 1.0 | 2.0 | 0.00 | 0.00 | 0.00 | 61 | 1014.0 |
| 20260906050600 | 82 | 39 | 1.0 | 2.0 | 0.00 | 0.00 | 0.00 | 61 | 1013.9 |
| 20260906045518 | 82 | 40 | 2.0 | 3.0 | 0.00 | 0.00 | 0.00 | 60 | 1013.9 |
| 20260906044516 | 82 | 39 | 2.0 | 3.0 | 0.00 | 0.00 | 0.00 | 60 | 1013.9 |
| 20260906043535 | 82 | 41 | 1.0 | 3.0 | 0.00 | 0.00 | 0.00 | 59 | 1014.0 |
| 20260906042533 | 83 | 45 | 2.0 | 3.0 | 0.00 | 0.00 | 0.00 | 59 | 1014.1 |
| 20260906042025 | 82 | 34 | 2.0 | 3.0 | 0.00 | 0.00 | 0.00 | 60 | 1014.1 |
| 20260906041104 | 82 | 39 | 1.0 | 2.0 | 0.00 | 0.00 | 0.00 | 60 | 1014.1 |
| 20260906040022 | 83 | 38 | 2.0 | 3.0 | 0.00 | 0.00 | 0.00 | 60 | 1013.9 |
| 20260906035020 | 83 | 40 | 2.0 | 3.0 | 0.00 | 0.00 | 0.00 | 60 | 1014.0 |
| 20260906034018 | 83 | 45 | 2.0 | 3.0 | 0.00 | 0.00 | 0.00 | 60 | 1014.0 |
| 20260906033016 | 83 | 42 | 2.0 | 3.0 | 0.00 | 0.00 | 0.00 | 60 | 1013.9 |
| 20260906032034 | 83 | 59 | 1.0 | 2.0 | 0.00 | 0.00 | 0.00 | 59 | 1013.8 |
| 20260906031032 | 84 | 37 | 2.0 | 3.0 | 0.00 | 0.00 | 0.00 | 59 | 1013.9 |
| 20260906030031 | 84 | 45 | 2.0 | 3.0 | 0.00 | 0.00 | 0.00 | 59 | 1013.8 |
| 20260906025029 | 85 | 35 | 0.0 | 2.0 | 0.00 | 0.00 | 0.00 | 58 | 1013.7 |
| 20260906024027 | 86 | 60 | 1.0 | 3.0 | 0.00 | 0.00 | 0.00 | 56 | 1013.6 |
| 20260906023025 | 86 | 55 | 2.0 | 4.0 | 0.00 | 0.00 | 0.00 | 55 | 1013.4 |
| 20260906022023 | 86 | 45 | 2.0 | 4.0 | 0.00 | 0.00 | 0.00 | 54 | 1013.3 |
| 20260906021021 | 87 | 42 | 2.0 | 4.0 | 0.00 | 0.00 | 0.00 | 53 | 1013.2 |
| 20260906020019 | 87 | 54 | 3.0 | 6.0 | 0.00 | 0.00 | 0.00 | 52 | 1013.0 |
| 20260906015037 | 88 | 38 | 2.0 | 4.0 | 0.00 | 0.00 | 0.00 | 51 | 1012.9 |
| 20260906014035 | 89 | 27 | 2.0 | 5.0 | 0.00 | 0.00 | 0.00 | 50 | 1012.8 |
| 20260906013034 | 90 | 42 | 3.0 | 6.0 | 0.00 | 0.00 | 0.00 | 48 | 1012.7 |
| 20260906012052 | 91 | 35 | 2.0 | 4.0 | 0.00 | 0.00 | 0.00 | 47 | 1012.7 |
| 20260906011030 | 91 | 37 | 3.0 | 7.0 | 0.00 | 0.00 | 0.00 | 45 | 1012.7 |
| 20260906010028 | 92 | 26 | 1.0 | 2.0 | 0.00 | 0.00 | 0.00 | 45 | 1012.5 |
| 20260906005026 | 92 | 16 | 1.0 | 2.0 | 0.00 | 0.00 | 0.00 | 44 | 1012.5 |
| 20260906004025 | 93 | 21 | 2.0 | 3.0 | 0.00 | 0.00 | 0.00 | 43 | 1012.5 |
| 20260906003022 | 94 | 29 | 2.0 | 4.0 | 0.00 | 0.00 | 0.00 | 42 | 1012.5 |
| 20260906002021 | 95 | 33 | 3.0 | 4.0 | 0.00 | 0.00 | 0.00 | 40 | 1012.4 |
| 20260906001019 | 96 | 33 | 3.0 | 6.0 | 0.00 | 0.00 | 0.00 | 37 | 1012.5 |
| 20260906000017 | 97 | 4 | 0.0 | 1.0 | 0.00 | 0.00 | 0.00 | 34 | 1012.5 |
| 20260905235035 | 98 | 7 | 0.0 | 2.0 | 0.00 | 0.00 | 0.00 | 34 | 1012.4 |
| 20260905234033 | 98 | 10 | 0.0 | 2.0 | 0.00 | 0.00 | 0.00 | 33 | 1012.3 |
| 20260905233031 | 99 | 18 | 1.0 | 2.0 | 0.00 | 0.00 | 0.00 | 32 | 1012.4 |
| 20260905232029 | 100 | 29 | 1.0 | 2.0 | 0.00 | 0.00 | 0.00 | 31 | 1012.4 |
| 20260905231027 | 101 | 325 | 1.0 | 4.0 | 0.00 | 0.00 | 0.00 | 30 | 1012.4 |
| 20260905230106 | 102 | 338 | 2.0 | 5.0 | 0.00 | 0.00 | 0.00 | 29 | 1012.3 |
| 20260905225024 | 103 | 356 | 1.0 | 4.0 | 0.00 | 0.00 | 0.00 | 29 | 1012.3 |
| 20260905224022 | 102 | 14 | 3.0 | 5.0 | 0.00 | 0.00 | 0.00 | 29 | 1012.2 |
| 20260905223020 | 104 | 1 | 1.0 | 2.0 | 0.00 | 0.00 | 0.00 | 28 | 1012.2 |
| 20260905222020 | 104 | 305 | 3.0 | 5.0 | 0.00 | 0.00 | 0.00 | 29 | 1012.3 |
| 20260905221016 | 104 | 286 | 2.0 | 4.0 | 0.00 | 0.00 | 0.00 | 29 | 1012.3 |
| 20260905220034 | 105 | 27 | 2.0 | 6.0 | 0.00 | 0.00 | 0.00 | 29 | 1012.5 |
| 20260905215053 | 106 | 337 | 2.0 | 4.0 | 0.00 | 0.00 | 0.00 | 29 | 1012.5 |
| 20260905214031 | 105 | 284 | 2.0 | 5.0 | 0.00 | 0.00 | 0.00 | 30 | 1012.5 |
| 20260905213029 | 102 | 328 | 1.0 | 4.0 | 0.00 | 0.00 | 0.00 | 31 | 1012.6 |
| 20260905212027 | 102 | 349 | 2.0 | 4.0 | 0.00 | 0.00 | 0.00 | 32 | 1012.8 |
| 20260905211025 | 103 | 35 | 2.0 | 5.0 | 0.00 | 0.00 | 0.00 | 32 | 1012.9 |
| 20260905210023 | 104 | 58 | 2.0 | 5.0 | 0.00 | 0.00 | 0.00 | 31 | 1013.2 |
| 20260905205021 | 104 | 32 | 2.0 | 5.0 | 0.00 | 0.00 | 0.00 | 32 | 1013.3 |
| 20260905204019 | 104 | 353 | 2.0 | 5.0 | 0.00 | 0.00 | 0.00 | 31 | 1013.5 |
| 20260905203017 | 104 | 281 | 2.0 | 5.0 | 0.00 | 0.00 | 0.00 | 32 | 1013.6 |
| 20260905202016 | 104 | 301 | 3.0 | 6.0 | 0.00 | 0.00 | 0.00 | 32 | 1013.7 |
| 20260905201034 | 103 | 359 | 1.0 | 3.0 | 0.00 | 0.00 | 0.00 | 33 | 1013.9 |
| 20260905200032 | 101 | 41 | 3.0 | 6.0 | 0.00 | 0.00 | 0.00 | 34 | 1014.0 |
| 20260905195030 | 104 | 3 | 3.0 | 6.0 | 0.00 | 0.00 | 0.00 | 33 | 1014.1 |
| 20260905194028 | 103 | 272 | 2.0 | 6.0 | 0.00 | 0.00 | 0.00 | 33 | 1014.2 |
| 20260905193027 | 103 | 167 | 2.0 | 7.0 | 0.00 | 0.00 | 0.00 | 33 | 1014.3 |
| 20260905192024 | 101 | 287 | 2.0 | 4.0 | 0.00 | 0.00 | 0.00 | 35 | 1014.3 |
| 20260905191023 | 102 | 23 | 3.0 | 6.0 | 0.00 | 0.00 | 0.00 | 35 | 1014.5 |
| 20260905190021 | 101 | 150 | 2.0 | 5.0 | 0.00 | 0.00 | 0.00 | 36 | 1014.9 |
| 20260905185019 | 100 | 345 | 3.0 | 6.0 | 0.00 | 0.00 | 0.00 | 37 | 1015.0 |
| 20260905184017 | 99 | 44 | 4.0 | 6.0 | 0.00 | 0.00 | 0.00 | 38 | 1015.1 |
| 20260905183035 | 98 | 20 | 3.0 | 7.0 | 0.00 | 0.00 | 0.00 | 39 | 1015.0 |
| 20260905182033 | 99 | 76 | 3.0 | 5.0 | 0.00 | 0.00 | 0.00 | 37 | 1015.2 |
| 20260905181031 | 99 | 196 | 1.0 | 3.0 | 0.00 | 0.00 | 0.00 | 36 | 1015.5 |
| 20260905180030 | 101 | 13 | 4.0 | 9.0 | 0.00 | 0.00 | 0.00 | 37 | 1015.5 |
| 20260905175048 | 100 | 307 | 2.0 | 5.0 | 0.00 | 0.00 | 0.00 | 37 | 1015.6 |
| 20260905174046 | 98 | 1 | 3.0 | 7.0 | 0.00 | 0.00 | 0.00 | 39 | 1015.8 |
| 20260905173024 | 98 | 309 | 3.0 | 6.0 | 0.00 | 0.00 | 0.00 | 40 | 1015.9 |
| 20260905172022 | 97 | 17 | 3.0 | 6.0 | 0.00 | 0.00 | 0.00 | 42 | 1016.1 |
| 20260905171020 | 96 | 333 | 2.0 | 5.0 | 0.00 | 0.00 | 0.00 | 43 | 1016.2 |
| 20260905170018 | 97 | 358 | 3.0 | 5.0 | 0.00 | 0.00 | 0.00 | 43 | 1016.3 |
| 20260905165016 | 97 | 21 | 3.0 | 6.0 | 0.00 | 0.00 | 0.00 | 43 | 1016.3 |
| 20260905164034 | 96 | 10 | 3.0 | 6.0 | 0.00 | 0.00 | 0.00 | 43 | 1016.3 |
| 20260905163033 | 96 | 354 | 3.0 | 5.0 | 0.00 | 0.00 | 0.00 | 44 | 1016.4 |
| 20260905162031 | 97 | 335 | 3.0 | 5.0 | 0.00 | 0.00 | 0.00 | 44 | 1016.5 |
| 20260905161049 | 95 | 358 | 2.0 | 5.0 | 0.00 | 0.00 | 0.00 | 45 | 1016.5 |
| 20260905160047 | 95 | 10 | 3.0 | 6.0 | 0.00 | 0.00 | 0.00 | 46 | 1016.4 |
| 20260905155025 | 95 | 14 | 3.0 | 7.0 | 0.00 | 0.00 | 0.00 | 46 | 1016.5 |
| 20260905154023 | 94 | 2 | 2.0 | 6.0 | 0.00 | 0.00 | 0.00 | 48 | 1016.6 |
| 20260905153042 | 93 | 314 | 2.0 | 4.0 | 0.00 | 0.00 | 0.00 | 50 | 1016.4 |
| 20260905152019 | 92 | 317 | 3.0 | 6.0 | 0.00 | 0.00 | 0.00 | 50 | 1016.5 |
| 20260905151017 | 92 | 250 | 3.0 | 4.0 | 0.00 | 0.00 | 0.00 | 50 | 1016.4 |
| 20260905150016 | 91 | 2 | 2.0 | 5.0 | 0.00 | 0.00 | 0.00 | 52 | 1016.3 |
| 20260905145054 | 89 | 295 | 1.0 | 3.0 | 0.00 | 0.00 | 0.00 | 55 | 1016.2 |
| 20260905144052 | 89 | 265 | 2.0 | 4.0 | 0.00 | 0.00 | 0.00 | 56 | 1016.2 |
| 20260905143030 | 88 | 313 | 2.0 | 4.0 | 0.00 | 0.00 | 0.00 | 56 | 1016.2 |
| 20260905142028 | 87 | 341 | 2.0 | 4.0 | 0.00 | 0.00 | 0.00 | 58 | 1016.1 |
| 20260905141026 | 86 | 283 | 1.0 | 3.0 | 0.00 | 0.00 | 0.00 | 59 | 1016.1 |
| 20260905140044 | 85 | 260 | 2.0 | 4.0 | 0.00 | 0.00 | 0.00 | 61 | 1016.1 |
| 20260905135103 | 83 | 281 | 1.0 | 4.0 | 0.00 | 0.00 | 0.00 | 64 | 1016.1 |
| 20260905134041 | 82 | 287 | 2.0 | 5.0 | 0.00 | 0.00 | 0.00 | 66 | 1016.2 |